Theta_e
322 321 321 321 322 321 320 320 321 320 319 319 319 318 314 316 317 317 319 320 321 324 325 325 324 324 322 322 321 321 320 318 315 315 314 314 314 313 312 311 311 310 309 307
319 319 319 320 319 318 319 318 318 318 318 316 314 310 311 313 312 313 315 317 318 318 317 318 318 320 321 321 321 321 319 319 318 315 313 313 312 312 312 311 311 309 308 307
320 318 318 319 317 317 318 318 318 318 316 311 309 309 308 306 305 305 306 309 311 312 313 313 312 313 315 316 316 318 319 317 317 315 314 312 312 312 311 311 311 311 309 307
317 317 319 316 317 317 317 317 314 313 311 309 307 307 306 305 304 303 302 302 302 302 304 306 308 310 312 311 311 312 313 316 317 315 315 312 312 311 312 312 311 310 308 308
318 317 316 315 313 314 314 313 310 310 308 306 305 306 307 305 304 303 302 301 300 299 301 301 302 304 305 307 308 311 311 311 312 314 313 309 309 312 312 311 311 310 308 307
313 316 317 312 309 309 310 312 306 306 305 305 304 303 307 304 302 302 301 301 300 299 299 300 301 301 301 303 303 303 304 305 307 311 312 312 313 310 312 311 312 310 307 306
312 312 310 309 307 307 309 308 306 305 304 303 301 302 301 300 300 299 299 299 299 298 298 298 299 299 300 301 302 303 304 304 305 307 309 312 313 310 311 310 310 309 307 306
310 310 310 308 306 307 304 304 303 303 302 301 301 300 300 299 299 298 298 298 298 298 298 298 298 298 298 299 301 302 304 303 303 303 307 311 313 313 309 310 308 308 306 304
306 305 305 303 303 302 301 300 300 299 299 299 299 298 298 298 298 298 298 299 299 299 299 299 298 298 299 298 301 305 303 303 303 301 304 310 313 309 307 310 308 306 306 304
302 304 304 303 301 300 300 299 299 299 299 299 299 299 299 299 300 300 300 300 300 300 300 299 299 299 299 299 298 298 301 303 303 302 302 308 310 312 311 310 307 307 305 303
301 302 301 301 300 299 300 299 299 298 299 299 299 300 300 301 300 301 301 300 300 300 300 300 300 299 299 298 298 298 298 300 302 300 301 305 307 309 310 311 308 308 306 305
300 301 300 300 300 300 299 298 298 298 299 300 300 299 300 299 299 299 299 299 298 297 299 300 300 299 299 299 298 298 298 298 299 301 300 302 304 305 305 307 309 307 307 306
299 300 300 299 298 298 298 298 298 299 300 300 300 299 299 299 298 297 297 296 295 295 296 298 299 299 299 299 299 298 298 298 297 298 298 301 301 302 303 301 301 306 306 307
299 299 299 298 298 298 298 299 300 300 300 299 299 298 298 297 297 296 295 294 293 293 293 294 296 298 299 299 299 298 298 298 297 299 298 299 300 300 301 301 300 298 301 307
298 298 298 298 298 298 298 300 301 299 299 299 297 296 295 295 295 293 292 292 293 293 293 293 293 294 296 299 299 299 299 298 298 299 298 298 299 299 299 299 299 300 302 302
298 298 298 297 297 298 300 300 300 299 297 295 295 294 293 293 292 292 292 291 292 293 293 293 293 294 294 294 294 297 298 299 299 299 298 297 298 297 297 298 298 298 300 304
298 298 298 298 300 300 300 299 298 296 294 294 293 292 292 292 292 292 291 290 290 291 292 292 292 292 292 292 292 294 296 298 300 299 297 297 297 296 297 297 297 297 299 304
298 299 299 299 299 299 298 297 296 294 293 293 292 291 291 291 291 291 291 291 291 291 291 291 290 289 289 290 290 290 294 296 298 299 298 298 297 296 296 296 295 296 297 300
300 299 299 299 299 298 297 295 293 293 293 292 292 292 291 290 290 290 290 290 290 290 290 290 290 290 291 292 291 290 293 295 296 298 297 297 297 294 295 294 294 295 296 299
299 299 299 298 298 296 294 292 293 293 292 292 292 291 290 289 289 289 290 290 289 290 289 289 290 291 293 293 292 291 292 294 297 298 297 296 295 293 293 293 294 295 295 298
298 298 297 296 295 294 293 293 292 292 292 291 290 290 289 289 290 289 289 289 289 290 289 290 291 292 292 293 292 291 293 295 297 297 295 294 293 293 293 293 294 296 296 295
298 297 296 294 293 293 293 292 292 292 292 291 290 290 289 289 289 289 289 288 288 289 289 289 291 293 293 293 292 292 294 295 296 295 294 294 294 294 294 294 295 294 294 293
295 294 294 293 293 293 292 293 293 292 292 291 290 290 289 289 289 289 288 288 288 289 289 289 290 293 293 294 294 294 294 295 295 295 294 294 294 295 296 296 294 293 292 291
294 294 294 293 293 292 293 293 293 292 291 291 290 289 289 289 289 289 288 288 287 289 290 289 290 291 292 293 293 294 295 295 295 294 294 294 296 296 296 295 293 292 291 292
294 293 293 292 292 293 294 293 292 292 291 291 289 288 289 289 289 289 289 288 287 288 289 289 290 290 291 292 292 293 294 294 294 294 296 296 295 295 296 295 293 292 291 290
294 293 293 293 294 293 293 292 292 291 290 287 287 287 289 289 288 288 288 288 288 288 288 289 289 290 290 291 292 292 293 293 293 295 295 295 295 294 295 295 294 293 291 290
294 294 294 294 293 293 293 292 292 288 286 287 286 287 288 289 288 288 289 288 288 287 287 288 289 289 289 290 290 291 292 292 293 294 294 294 294 294 294 293 293 292 291 289
Wind_Speed
6 6 10 5 8 14 11 9 7 14 11 15 2 4 15 16 15 12 3 6 4 6 13 16 12 18 17 19 20 23 25 22 22 25 23 23 23 23 22 23 22 22 21 20
5 9 4 5 10 11 13 13 13 13 14 5 17 22 20 18 19 18 20 19 13 10 6 2 2 8 14 16 12 19 29 29 27 25 21 25 24 23 23 22 22 23 24 23
4 2 4 5 19 21 19 17 8 10 10 7 10 12 14 17 18 16 13 11 10 8 7 7 8 10 13 14 16 15 15 25 31 30 19 18 24 27 28 29 28 28 27 25
2 4 6 7 9 17 23 17 3 3 7 9 9 10 15 15 14 13 14 14 17 19 17 16 16 16 18 18 18 16 14 14 22 32 23 13 27 29 31 33 32 31 32 28
3 6 7 11 3 1 4 4 5 7 6 8 10 5 8 8 7 7 9 14 19 24 20 19 17 19 22 23 23 23 28 27 24 24 31 25 29 40 36 34 34 32 33 31
3 4 9 2 8 8 4 1 5 7 5 2 4 2 2 11 13 14 14 17 19 20 21 20 23 22 21 25 25 24 25 26 22 27 34 32 39 34 44 37 36 34 37 33
5 4 4 4 9 6 5 4 9 7 4 3 3 4 10 17 18 18 19 18 20 25 30 30 29 25 29 32 31 27 27 24 22 28 33 36 42 39 43 43 40 38 39 37
4 5 6 11 9 6 6 13 11 8 6 8 10 11 11 11 17 21 26 31 33 31 31 29 30 29 36 34 35 31 31 28 28 26 33 37 46 43 36 47 45 43 43 42
6 5 5 14 10 8 8 6 2 5 3 6 11 15 21 26 30 33 34 35 36 34 33 31 29 29 33 35 27 30 32 36 31 29 25 37 37 36 41 51 50 49 48 48
5 6 9 14 10 5 2 4 1 2 5 9 14 20 24 27 27 29 30 28 28 29 32 33 35 33 35 32 33 34 28 32 30 29 23 33 41 49 49 53 52 51 52 50
3 5 4 7 5 2 3 3 2 5 8 12 16 11 16 19 23 25 30 32 32 32 32 33 35 38 38 39 35 37 34 33 27 26 20 23 41 42 48 51 41 55 55 51
3 5 6 6 5 6 3 2 6 9 13 10 11 12 18 24 22 22 27 33 35 35 31 33 34 38 38 40 38 36 40 32 34 27 21 23 33 43 47 55 44 53 58 49
4 5 5 6 5 5 6 10 12 12 8 11 12 13 17 22 25 26 25 29 32 32 34 32 33 33 34 35 37 38 42 39 35 34 30 24 31 37 42 43 45 59 55 44
5 6 10 9 7 11 10 9 7 7 5 6 11 14 17 22 23 27 33 32 32 33 34 35 35 32 31 29 28 36 41 40 36 33 32 28 30 35 39 45 44 45 44 43
14 14 13 12 11 12 10 8 6 6 12 17 21 22 17 20 26 30 30 31 30 32 35 35 35 36 33 25 27 29 35 41 39 33 30 28 31 36 44 46 44 47 45 40
16 17 18 20 20 11 7 6 9 12 17 16 14 14 16 19 27 27 29 28 28 34 38 39 38 35 33 32 31 31 32 32 37 33 28 26 32 39 45 46 46 47 50 47
15 12 15 15 12 8 7 10 12 13 13 12 13 14 21 21 24 27 28 31 32 35 37 38 40 38 39 40 40 34 31 32 34 34 29 26 30 39 47 48 49 50 53 48
17 11 9 10 7 6 9 11 12 11 10 11 14 15 18 21 24 27 30 35 36 36 37 39 42 45 42 39 35 33 33 33 31 34 29 30 30 39 48 48 48 50 51 48
13 11 11 11 10 9 9 9 7 8 9 11 14 18 20 21 23 28 31 35 34 36 41 45 44 38 35 32 30 30 31 33 33 34 29 30 31 40 46 46 46 45 47 45
15 13 12 10 8 8 7 6 7 9 9 12 14 18 20 22 24 27 31 33 33 35 43 45 39 32 31 26 25 27 30 31 30 30 26 27 28 37 39 41 42 40 41 37
15 10 6 7 8 8 7 7 5 8 8 11 12 16 19 21 23 26 30 33 35 38 42 39 32 29 29 20 13 21 28 26 26 26 24 24 28 31 34 34 34 30 30 33
14 11 10 9 7 5 5 4 2 4 7 7 11 15 18 22 23 25 23 26 34 36 36 35 30 24 22 7 6 17 22 22 23 22 23 25 26 27 28 21 20 25 27 27
11 10 7 5 5 5 3 3 3 4 6 5 9 16 17 19 21 23 28 30 31 32 30 30 29 19 14 5 5 14 18 19 18 20 22 24 26 20 12 11 17 20 21 21
6 9 8 5 5 4 3 1 2 2 1 4 10 14 16 19 19 19 21 25 28 28 27 23 24 21 8 6 9 11 14 14 17 19 22 22 16 11 11 13 17 21 21 17
10 8 7 9 9 5 4 5 6 8 10 13 13 10 10 13 17 20 21 23 25 23 24 24 17 15 14 9 6 10 13 16 18 18 16 15 15 15 14 15 17 17 18 17
11 11 9 8 7 5 9 10 10 11 15 16 11 11 8 12 17 17 19 21 23 20 20 21 21 16 11 8 3 5 8 13 15 12 15 13 13 14 13 13 13 14 16 18
15 14 11 11 11 13 11 10 11 12 10 7 10 12 9 10 13 15 17 18 20 19 18 17 17 18 17 12 8 5 2 3 5 9 11 12 13 12 10 10 9 11 13 17
Wind_Direction
298 334 86 166 260 288 296 283 243 276 249 285 246 311 28 25 1 16 335 38 52 158 197 212 197 200 206 214 235 243 252 243 239 225 215 209 208 204 212 204 201 204 203 201
310 302 341 300 280 270 260 264 267 279 272 312 76 57 34 50 52 48 52 59 67 57 51 26 202 212 221 227 226 236 239 241 235 221 218 213 205 205 195 209 207 209 209 205
259 301 343 252 232 246 255 257 243 253 271 48 41 57 70 69 66 61 47 34 33 22 360 347 324 299 276 268 271 262 258 224 229 221 208 231 221 208 205 210 211 211 211 205
197 73 243 250 188 229 238 254 297 108 79 69 70 54 85 76 67 47 22 11 355 351 339 318 308 298 289 281 282 273 266 255 241 221 246 230 235 223 218 215 217 214 208 202
210 204 287 292 16 69 161 99 61 99 87 67 43 64 93 78 45 21 351 336 331 325 324 325 320 306 297 289 285 278 273 276 267 253 205 210 233 229 225 219 215 213 214 209
159 211 222 179 120 100 84 191 87 89 92 86 62 62 198 326 334 326 320 318 316 319 312 303 302 307 294 289 285 288 286 281 276 244 249 243 228 230 230 226 218 210 211 211
179 212 276 183 138 121 134 202 172 163 160 151 175 231 287 290 292 295 296 297 303 303 301 295 289 288 285 285 277 286 291 285 272 255 256 244 227 222 235 228 218 209 210 208
183 197 232 203 134 170 170 159 181 187 198 237 263 294 309 313 311 309 307 306 304 296 294 301 299 293 283 287 280 275 280 286 283 282 253 251 246 229 219 230 219 207 207 206
168 198 159 88 112 120 107 98 45 306 75 357 335 325 320 315 312 307 305 303 301 294 287 285 287 292 291 280 299 275 270 278 284 291 262 248 241 212 229 226 216 211 204 205
114 194 167 156 137 123 45 331 107 61 346 330 319 312 306 303 306 309 309 309 311 306 291 284 284 280 281 282 280 288 283 286 286 280 280 252 241 237 227 220 218 213 210 205
145 148 113 132 122 26 273 233 328 333 323 310 301 318 319 311 307 304 302 299 297 296 298 298 291 280 276 272 274 279 281 278 288 288 281 266 247 243 233 219 224 217 216 209
197 196 173 225 263 271 185 311 315 312 301 278 296 311 308 305 312 312 304 305 306 305 302 297 293 283 275 272 272 270 272 278 279 281 276 264 255 243 233 229 221 231 220 213
193 278 243 248 236 245 289 291 291 278 277 296 299 292 289 293 301 302 301 302 306 306 298 302 305 285 276 278 272 267 269 276 278 276 272 258 253 247 244 228 223 222 218 214
310 271 232 244 266 279 275 257 255 276 256 266 282 289 297 303 298 297 302 308 312 310 305 297 291 295 291 278 275 272 269 271 271 273 268 256 254 253 244 237 221 212 218 217
263 261 266 259 253 262 261 240 260 286 292 288 292 299 301 300 299 303 310 311 312 311 310 308 303 291 282 278 276 271 268 267 264 265 268 257 257 252 238 232 225 219 210 212
238 233 234 241 245 225 184 232 260 275 292 300 298 299 305 299 300 306 313 315 309 310 313 314 308 303 301 292 282 277 270 269 261 259 261 257 252 243 231 224 217 212 207 204
238 248 249 249 183 186 215 251 270 292 293 293 300 300 302 314 315 317 319 320 314 310 309 314 313 308 297 291 284 272 262 258 259 252 251 252 251 239 229 222 214 211 209 206
259 231 226 199 204 211 232 258 282 281 276 284 295 305 316 318 314 316 318 319 320 315 317 320 315 307 298 288 278 268 254 250 254 249 250 245 247 238 222 217 212 209 207 200
206 201 157 174 199 226 257 269 263 257 271 300 305 309 316 315 315 322 323 321 316 316 320 322 318 310 303 292 276 255 241 240 244 244 245 247 247 232 220 213 209 208 208 196
158 173 185 200 233 253 246 231 256 270 289 294 305 313 318 319 320 322 325 320 322 318 325 326 323 314 314 297 277 237 228 230 236 239 244 244 236 224 216 210 209 208 202 192
165 178 201 231 242 242 254 271 279 301 316 327 330 321 319 323 324 325 327 326 328 336 335 334 332 327 324 299 257 209 215 224 229 234 235 222 213 203 195 196 195 191 191 193
192 213 224 239 233 244 258 277 302 337 342 334 324 329 325 326 327 329 330 328 333 343 341 347 345 342 344 327 224 206 213 221 225 227 218 206 201 194 185 181 189 196 199 199
213 208 202 205 227 262 225 226 277 306 326 307 320 334 332 330 331 334 332 340 343 347 348 352 358 359 354 314 228 218 223 219 222 226 208 202 193 183 169 188 209 210 206 208
193 194 207 207 235 242 242 332 245 321 293 321 327 334 332 338 338 344 337 340 347 353 358 356 360 5 359 262 240 230 225 230 229 209 200 192 184 165 183 218 216 215 217 211
211 207 225 222 226 215 314 186 239 265 275 289 303 300 316 327 329 340 339 343 352 356 5 9 4 10 7 354 309 263 243 226 209 195 184 177 175 179 194 206 210 217 219 219
221 222 220 215 228 240 252 251 264 284 294 305 321 325 335 342 339 341 346 354 358 2 5 14 21 22 26 27 331 250 231 214 202 193 191 185 188 187 187 197 207 213 220 221
223 218 223 220 227 242 234 251 280 289 300 321 316 327 335 339 339 345 351 354 1 7 9 15 22 30 38 44 54 69 111 154 168 192 195 188 181 179 190 199 209 220 220 220